Paganella, Italy

3:47 PM CET on February 19, 2017 (GMT +0100)
Paganella

Weather History for LIVP - November, 2012

Change the Weather History Date:

Wednesday, November 14, 2012

  Actual Average Record
Temperature  
Mean Temperature 34 °F -  
Max Temperature 37 °F 32 °F 48 °F (2006)
Min Temperature 30 °F 24 °F 14 °F (2004)
Degree Days  
Heating Degree Days 32    
Moisture  
Dew Point 20 °F    
Average Humidity 60    
Maximum Humidity 100    
Minimum Humidity 21    
Precipitation  
Precipitation 0.00 in 0.05 in - ()
Sea Level Pressure  
Sea Level Pressure 30.29 in    
Wind  
Wind Speed 5 mph ()    
Max Wind Speed 13 mph    
Max Gust Speed -    
Visibility 4.0 miles    
Events Fog    
Averages and records for this station are not official NWS values.
T = Trace of Precipitation, MM = Missing Value Source: Averaged Metar Reports

Daily Weather History Graph

Daily Weather History Graph

Search for Another Location

Airport or City:

Trip Planner

Search our weather history database for the weather conditions in past years. The results will help you decide how hot, cold, wet, or windy it might be!

Date:

Astronomy

Nov. 14, 2012 Rise Set
Actual Time 7:15 AM CET 4:44 PM CET
Civil Twilight 6:43 AM CET 5:17 PM CET
Nautical Twilight 6:06 AM CET 5:53 PM CET
Astronomical Twilight 5:31 AM CET 6:28 PM CET
Moon 7:48 AM CET (11/14) 5:13 PM CET (11/14)
Length of Visible Light 10h 33m
Length of Day
9h 28m
New Moon, 0% of the Moon is Illuminated
Nov 14
New Moon
Nov 20
First Quarter
Nov 28
Full
Dec 6
Last Quarter
Dec 13
New

Hourly Weather History & Observations

Time (CET) Temp. Windchill Dew Point Humidity Pressure Visibility Wind Dir Wind Speed Gust Speed Precip Events Conditions
12:55 AM 33.8 °F 30.8 °F 30.2 °F 87% 30.39 in 6.2 mi West 3.5 mph - N/A   Partly Cloudy
1:00 AM 33 °F - 31 °F 87%  in 4 mi West 3.5 mph - -   Mist
1:55 AM 33.8 °F - 30.2 °F 87% 30.36 in 6.2 mi West 2.3 mph - N/A   Partly Cloudy
2:55 AM 33.8 °F - 30.2 °F 87% 30.36 in 6.2 mi West 2.3 mph - N/A   Partly Cloudy
3:55 AM 33.8 °F 29.6 °F 30.2 °F 87% 30.33 in 0.0 mi North 4.6 mph - N/A Fog Fog
4:00 AM 33 °F - 30 °F 85%  in 0 mi North 4.6 mph - - Fog Heavy Fog
4:55 AM 32.0 °F 27.5 °F 30.2 °F 93% 30.30 in 0.0 mi North 4.6 mph - N/A Fog Fog
5:55 AM 30.2 °F 21.9 °F 28.4 °F 93% 30.30 in 6.2 mi North 9.2 mph - N/A   Scattered Clouds
6:55 AM 30.2 °F 20.2 °F 28.4 °F 93% 30.30 in 0.6 mi North 12.7 mph - N/A Fog Light Freezing Fog
7:00 AM 30 °F - 28 °F 91%  in 1 mi North 12.7 mph - - Fog Fog
7:55 AM 30.2 °F 21.9 °F 30.2 °F 100% 30.30 in 0.1 mi North 9.2 mph - N/A Fog Light Freezing Fog
8:55 AM 30.2 °F 22.6 °F 30.2 °F 100% 30.30 in 6.2 mi North 8.1 mph - N/A   Partly Cloudy
9:55 AM 32.0 °F 26.4 °F 30.2 °F 93% 30.30 in 6.2 mi North 5.8 mph - N/A   Partly Cloudy
10:00 AM 32 °F - 31 °F 93%  in 1 mi North 5.8 mph - -   Mist
10:55 AM 35.6 °F 29.9 °F 15.8 °F 44% 30.30 in 6.2 mi North 6.9 mph - N/A   Scattered Clouds
11:55 AM 37.4 °F 32.1 °F 12.2 °F 36% 30.30 in 6.2 mi NNE 6.9 mph - N/A   Scattered Clouds
12:55 PM 37.4 °F 34.9 °F 12.2 °F 36% 30.27 in 6.2 mi NNE 3.5 mph - N/A   Scattered Clouds
1:00 PM 37 °F - 12 °F 22%  in 9 mi NNE 3.5 mph - -   Partly Cloudy
1:55 PM 35.6 °F 29.9 °F 12.2 °F 38% 30.27 in - NNE 6.9 mph - N/A   Clear
2:55 PM 35.6 °F 29.9 °F 8.6 °F 33% 30.27 in - NNE 6.9 mph - N/A   Clear
3:55 PM 37.4 °F 32.1 °F 12.2 °F 36% 30.27 in - North 6.9 mph - N/A   Clear
4:00 PM 37 °F - 12 °F 22%  in 44 mi North 6.9 mph - -   Clear
4:55 PM 35.6 °F 30.7 °F 8.6 °F 33% 30.27 in - NNE 5.8 mph - N/A   Clear
5:55 PM 35.6 °F 29.9 °F 12.2 °F 38% 30.27 in - NNE 6.9 mph - N/A   Clear
6:55 PM 37.4 °F 32.8 °F 12.2 °F 36% 30.27 in - North 5.8 mph - N/A   Clear
7:00 PM 38 °F - 12 °F 21%  in 25 mi North 5.8 mph - -   Partly Cloudy
7:55 PM 37.4 °F 32.1 °F 12.2 °F 36% 30.27 in - North 6.9 mph - N/A   Clear
8:55 PM 37.4 °F 32.1 °F 12.2 °F 36% 30.27 in - North 6.9 mph - N/A   Clear
9:55 PM 35.6 °F 29.2 °F 15.8 °F 44% 30.27 in - North 8.1 mph - N/A   Clear
10:00 PM 36 °F - 17 °F 31%  in 25 mi North 8.1 mph - -   Partly Cloudy
10:55 PM 35.6 °F 28.0 °F 17.6 °F 48% 30.24 in - North 10.4 mph - N/A   Clear
11:55 PM 35.6 °F 28.0 °F 19.4 °F 52% 30.24 in - North 10.4 mph - N/A   Clear